DELTA 1 DEB, 7169

Orbit data source: Space-Track

DELTA 1 DEB, 7169 is space debris in SSO originally from a launch on Tue, 06 Nov 1973 UTC launched from the Air Force Western Test Range (AFWTR). Debris objects in space refer to the collection of defunct objects orbiting the Earth. Examples of debris include non-operational satellites, rocket bodies, and fragments generated from explosions, collisions, or faulty payload assembly.

Loading next visibility...
Identifier
7169, 1973-086EH
Orbit
SSO
Country
Flag of USUS
Related business
Manufacturer
Unknown
Mission
Spacecraft
Bus & Motor
Unknown
Mass
Unknown
Launch date (UTC)
1973-11-06 (52 years ago)
Launch vehicle
Unknown
Launch site
Air Force Western Test Range (AFWTR)
Object type
Payload
Rocket body
Debris
Shape & HBR
Unknown shape, 0.1 m
Radar Cross Section
Small (<0.1 m²)

Expand to show TLE details & history
Last TLE update: 15 hours ago

TLE from 15 hours ago
0 DELTA 1 DEB
1 07169U 73086EH  25346.72839203  .00000335  00000-0  18790-2 0  9999
2 07169 101.4425  49.0419 0131497  88.3700  34.4311 12.68708142405824
Epoch: 2025-12-12T17:28Z
TLE epoch observation values (Epoch: 2025-12-12T17:28:53.071Z)
Latitude
54.75831°
Longitude
-98.28306°
Altitude
1,312.267 km
Speed
7.245 km/s
True Right ascension
16h 22m 24s
True Declination
54° 36' 28"
Sunlit
Object was in daylight at epoch
Visualization orbit readout
Latitude
Unknown
Longitude
Unknown
Altitude
Unknown
Speed
Unknown
Apparent Right ascension
Unknown
Apparent Declination
Unknown
Sunlit
N/A
Visualization observer readout
Local Sidereal Time
07:08:39
Azimuth
Unknown
Elevation
Unknown
Doppler factor
Unknown
Orbital elements
Apogee altitude
1,486.79 km
Perigee altitude
1,282.631 km
Semi-major axis
7,762.848 km
Eccentricity
0.01315
Inclination
101.4425°
RAAN
49.0419°
Arg. of periapsis
88.37°
True anomaly
35.29476°
Mean anomaly
34.4311°
Eccentric anomaly
34.86175°
Mean motion
3.1733 °/min
Orbital period
113.45 mins
BSTAR
0.001879
Loading maneuver chart data...
Computing Atmospheric mass density...
Loading historical data...
Loading historical data...
Loading historical data...
Loading historical data...
Loading historical data...
Loading historical data...
Loading historical data...

Documentation

Showing up to 5 results
|